Regional Weather Roundup
Issued by NWS Charleston, SC

Current Version | Previous Version | Text Only | Print | Product List | Glossary Off
Versions: 1 2 3 4 5 6 7 8 9 10 11 12 13 14 15 16 17 18 19 20 21 22 23 24 25 26 27 28 29 30 31 32 33 34 35 36 37 38 39 40 41 42 43 44 45 46 47 48 49 50

294
ASUS42 KCHS 200227
RWRCHS

REGIONAL WEATHER ROUNDUP
NATIONAL WEATHER SERVICE CHARLESTON SC
900 PM EST SUN FEB 19 2017

NOTE: "FAIR" INDICATES FEW OR NO CLOUDS BELOW 12,000 FEET WITH NO
SIGNIFICANT WEATHER AND/OR OBSTRUCTIONS TO VISIBILITY.

NOT ALL STATIONS ARE QUALITY CONTROLLED. USE DATA WITH CAUTION...
ESPECIALLY DEWPOINT OBSERVATIONS.

SCZ027-030-031-034>040-042>050-200300-
...SOUTHEAST SOUTH CAROLINA...

CITY           SKY/WX    TMP DP  RH WIND       PRES   REMARKS
N CHARLESTON   CLEAR     60  48  64 NW5       30.07R
WATERFRONT PRK   N/A     66  51  58 CALM      30.06R
MOUNT PLEASANT LGT RAIN  55  50  82 CALM      30.07S
JOHNS ISLAND   FAIR      57  50  77 CALM      30.08R
PINOPOLIS        N/A     61  54  77 NW5       29.97R
MONCKS CORNER  FAIR      54  48  82 CALM      30.08R
SUMMERVILLE    FAIR      55  48  76 CALM      30.09R
BEAUFORT MCAS  CLEAR     58  51  78 CALM      30.08R
BEAUFORT ARPT  FAIR      59  50  72 CALM      30.08R
HILTON HEAD IS CLEAR     55  54  94 CALM      30.09R
WALTERBORO     CLEAR     54  48  82 CALM      30.09R
ALLENDALE      FAIR      57  50  77 CALM      30.08R

...SOUTHERN MIDLANDS AND PEE DEE...

CITY           SKY/WX    TMP DP  RH WIND       PRES   REMARKS
GEORGETOWN     FAIR      52  46  82 CALM      30.08R
KINGSTREE      FAIR      52  46  82 CALM      30.08R
ORANGEBURG     CLEAR     57  48  72 CALM      30.08R
BARNWELL       FAIR      55  52  88 CALM      30.09R
AIKEN          FAIR      52  46  82 CALM      30.12R
MANNING        FAIR      52  46  82 MISG      30.08R
COLUMBIA       CLEAR     57  49  74 CALM      30.07R
SUMTER         CLEAR     55  47  74 CALM      30.05R
FLORENCE       CLEAR     54  47  77 W5        30.07R
MYRTLE BEACH   NOT AVBL
N MYRTLE BEACH CLEAR     53  50  89 CALM      30.04R

$$

GAZ063-065-086>088-099>101-113>116-118-119-134>141-150-200300-
...SOUTHEAST GEORGIA...

CITY           SKY/WX    TMP DP  RH WIND       PRES   REMARKS
SAVANNAH ARPT  CLEAR     59  50  72 CALM      30.08R
HUNTER AAF     CLEAR     62  53  72 CALM      30.05R
FORT STEWART   CLEAR     58  52  78 CALM      30.06R
STATESBORO     CLEAR     55  55 100 CALM      30.09R
SYLVANIA       CLEAR    N/A N/A N/A CALM      30.09R
CLAXTON        FAIR     N/A N/A N/A CALM      30.09R

...CSRA...CENTRAL AND FAR SOUTHEAST GEORGIA...

CITY           SKY/WX    TMP DP  RH WIND       PRES   REMARKS
THOMSON        CLEAR     55  53  95 CALM      30.13S
AUGUSTA-BUSH   CLEAR     56  48  74 CALM      30.07R
AUGUSTA-DANIEL CLEAR     65  46  50 N5        30.09R
SWAINSBORO     FAIR      55  52  88 CALM      30.09S
VIDALIA        CLEAR     61  55  82 CALM      30.09S
EASTMAN        FAIR      56  53  92 CALM      30.11S
HAZLEHURST     FAIR      63  55  74 CALM      30.07F
ALMA           CLEAR     57  53  86 CALM      30.08R
WAYCROSS       CLEAR     62  57  85 CALM      30.08S
JESUP          FAIR      61  54  77 NW3       30.09R
BAXLEY         FAIR      59  59 100 CALM      30.09R
BRUNSWICK      PTCLDY    61  61 100 CALM      30.09R
SAINT SIMONS   PTCLDY    62  59  90 CALM      30.07R

$$

SCZ027-028-034-036>038-045-046-048>050-GAZ119-141-200300-
...LAKE AND SUPPLEMENTAL COASTAL OBSERVATIONS...

STATION/POSITION TIME  TEMP    WIND        PRES    WAVE   SWELL
                       AIR SEA DIR/SP/G            HT/PER HT/PER/DIR
                 (UTC) (F)     (DEG/KT/KT) (MB)    (FT/S) (FT/S/D)
WINYAH BAY       0145   60     310/  3     1017.0S
LAKE MURRAY      0130   57        CALM     1017.9R
ACE BASIN NERRS  0130   58        CALM     1018.0R
FORT PULASKI     0200   62 60   CALM  /  1 1018.6
SAPELO ISLAND    0200   61        CALM     1018.0

$$

ANZ835-935-AMZ111-154-330-350-352-354-370-450-454-472-200300-
...C-MAN AND BUOY OBSERVATIONS...

STATION/POSITION TIME  TEMP    WIND        PRES    WAVE   SWELL
                       AIR SEA DIR/SP/G            HT/PER HT/PER/DIR
                 (UTC) (F)     (DEG/KT/KT) (MB)    (FT/S) (FT/S/D)
BUOY 41004       0150   67 69  300/ 10/ 12 1017.4R   2/ 6   2/110/ 6
BUOY 41008       0150   63 62  190/  6/  6 1018.3R   1
FOLLY BEACH CMAN 0200   63     320/  3/  4 1018.7R
CAPERS NEARSHORE 0208   62 60  330/  6/  8 1018.0R
FRIPP NEARSHORE  0208   61 60  250/  4/  4 1018.4R


STATION/POSITION TIME  TEMP    WIND        PRES    WAVE   SWELL
                       AIR SEA DIR/SP/G            HT/PER HT/PER/DIR
                 (UTC) (F)     (DEG/KT/KT) (MB)    (FT/S) (FT/S/D)
5E ST. MARYS GA  0200      64                N/A     1
FRYING PAN BUOY  0210   63 64  280/  8/ 12 1017.4
BUOY 41025       0150   62 67  360/  8/ 10 1015.8R   2/ 7   2/160/ 7
CAPE LOOKOUT NC  0200   59     280/  5/  5 1016.0R
BUOY 41002       0150   69 71  340/ 16/ 23 1015.0R   5/ 7   2/ 90/13
BUOY 41010       NOT AVBL
ST AUGUSTINE FL  0200   66 67  160/  4/  5 1019.5R


$$




USA.gov is the U.S. government's official web portal to all federal, state and local government web resources and services.